Location: Constantia
(34.0183°S, 18.4411°E)
Time: 10:48:10
(UTC+00:00)

SeaSat 1 - Pass Details

Date: 17 February 2020
Orbit: 744 x 747 km, 108.0° (Epoch: 08 April)

Event Time Altitude Azimuth Distance (km) Brightness Sun altitude
Rises 01:40:31 0° 158° (SSE) 3,217 6.7 -30.1°
Reaches altitude 10° 01:42:48 10° 159° (SSE) 2,286 5.7 -29.8°
Enters shadow 01:46:49 57° 177° (S) 883 2.9 -29.2°
